Tucson, Arizona, United States (85701)
Lat: 32.22N, Lon: 110.93W
Wx Zone: AZZ504
Local Info
Past Weather Observations for Tuesday, June 30, 2015

NOTE: This archive is for the closest National Weather Service station to Tucson. Information may differ from the station used for current weather conditions.

Click here for Long-term Archive

Time Weather Temperature Dewpoint Humidity Pressure Winds Precip Visibility
23:58
Clear
73°F / 23°C 64°F / 18°C 74% 30.04 in
(1017 mb)
SE 8.1 mph
(SE 13 kph)
- 10SM
22:58
Partly Cloudy
73°F / 23°C 64°F / 18°C 74% 30.04 in
(1017 mb)
S 17.3 mph
(S 28 kph)
- 10SM
21:58
Clear
75°F / 24°C 66°F / 19°C 74% 30.01 in
(1016 mb)
SSE 18.4 mph
(SSE 30 kph)
- 10SM
20:58
Partly Cloudy
77°F / 25°C 68°F / 20°C 74% 29.95 in
(1014 mb)
S 20.7 mph
(S 33 kph)
0.00 in
(0.00 mm)
10SM
20:46
Partly Cloudy
Thunder Storms
77°F / 25°C 68°F / 20°C 74% 29.92 in
(1013 mb)
SSE 17.3 mph
(SSE 28 kph)
- 10SM
20:45
Partly Cloudy
Light Rain
77°F / 25°C 68°F / 20°C 74% 29.92 in
(1013 mb)
SSE 17.3 mph
(SSE 28 kph)
- 10SM
20:40
Partly Cloudy
Thunder Storms
79°F / 26°C 68°F / 20°C 70% 29.92 in
(1013 mb)
SSE 16.1 mph
(SSE 26 kph)
- 6SM
20:35
Partly Cloudy
Thunder Storms
81°F / 27°C 68°F / 20°C 66% 29.92 in
(1013 mb)
S 12.7 mph
(S 20 kph)
- 6SM
20:30
Partly Cloudy
Thunder Storms
82°F / 28°C 66°F / 19°C 58% 29.89 in
(1012 mb)
SE 10.4 mph
(SE 17 kph)
- 10SM
20:26
Partly Cloudy
Light Rain
84°F / 29°C 64°F / 18°C 51% 29.89 in
(1012 mb)
S 9.2 mph
(S 15 kph)
- 10SM
19:58
Partly Cloudy
86°F / 30°C 63°F / 17°C 46% 29.89 in
(1012 mb)
S 15 mph
(S 24 kph)
- 10SM
18:58
Clear
Thunder Storms
88°F / 31°C 64°F / 18°C 46% 29.86 in
(1011 mb)
NW 10.4 mph
(NW 17 kph)
- 10SM
17:58
Clear
90°F / 32°C 63°F / 17°C 41% 29.86 in
(1011 mb)
NW 21.9 mph
(NW 35 kph)
- 10SM
15:58
Clear
97°F / 36°C 61°F / 16°C 30% 29.86 in
(1011 mb)
NNW 15 mph
(NNW 24 kph)
- 10SM
15:17
Clear
97°F / 36°C 61°F / 16°C 30% 29.89 in
(1012 mb)
NW 17.3 mph
(NW 28 kph)
- 10SM
14:58
Clear
97°F / 36°C 59°F / 15°C 28% 29.92 in
(1013 mb)
NNW 11.5 mph
(NNW 19 kph)
- 10SM
14:18
Clear
95°F / 35°C 59°F / 15°C 30% 29.95 in
(1014 mb)
NW 11.5 mph
(NW 19 kph)
- 10SM
13:58
Clear
95°F / 35°C 59°F / 15°C 30% 29.95 in
(1014 mb)
NW 13.8 mph
(NW 22 kph)
- 10SM
12:58
Partly Cloudy
93°F / 34°C 61°F / 16°C 34% 29.98 in
(1015 mb)
W 5.8 mph
(W 9 kph)
- 10SM
11:58
Partly Cloudy
91°F / 33°C 63°F / 17°C 38% 30.01 in
(1016 mb)
N 8.1 mph
(N 13 kph)
- 10SM
10:58
Partly Cloudy
88°F / 31°C 63°F / 17°C 43% 30.01 in
(1016 mb)
WNW 9.2 mph
(WNW 15 kph)
- 10SM
09:58
Partly Cloudy
81°F / 27°C 64°F / 18°C 58% 30.01 in
(1016 mb)
Calm 0.00 in
(0.00 mm)
10SM
09:08
Clear
79°F / 26°C 64°F / 18°C 61% 30.04 in
(1017 mb)
S 1.2 mph
(S 2 kph)
- 10SM
09:03
Partly Cloudy
Drizzle
79°F / 26°C 64°F / 18°C 61% 30.04 in
(1017 mb)
S 4.6 mph
(S 7 kph)
- 10SM
08:58
Clear
79°F / 26°C 64°F / 18°C 61% 30.04 in
(1017 mb)
S 4.6 mph
(S 7 kph)
0.00 in
(0.00 mm)
10SM
08:31
Clear
77°F / 25°C 64°F / 18°C 65% 30.04 in
(1017 mb)
S 10.4 mph
(S 17 kph)
- 10SM
08:17
Partly Cloudy
Drizzle
79°F / 26°C 64°F / 18°C 61% 30.04 in
(1017 mb)
SSE 11.5 mph
(SSE 19 kph)
- 10SM
07:58
Clear
79°F / 26°C 63°F / 17°C 58% 30.04 in
(1017 mb)
SSE 8.1 mph
(SSE 13 kph)
- 10SM
06:58
Clear
77°F / 25°C 64°F / 18°C 65% 30.01 in
(1016 mb)
S 11.5 mph
(S 19 kph)
- 10SM
05:58
Clear
75°F / 24°C 63°F / 17°C 65% 30.01 in
(1016 mb)
S 9.2 mph
(S 15 kph)
0.00 in
(0.00 mm)
10SM
05:48
Partly Cloudy
75°F / 24°C 63°F / 17°C 65% 30.01 in
(1016 mb)
S 9.2 mph
(S 15 kph)
- 10SM
05:47
Partly Cloudy
Drizzle
75°F / 24°C 63°F / 17°C 65% 30.01 in
(1016 mb)
S 8.1 mph
(S 13 kph)
- 10SM
05:37
Partly Cloudy
75°F / 24°C 64°F / 18°C 69% 30.01 in
(1016 mb)
S 4.6 mph
(S 7 kph)
- 10SM
05:24
Mostly Cloudy
Light Rain
77°F / 25°C 63°F / 17°C 61% 30.01 in
(1016 mb)
SSE 5.8 mph
(SSE 9 kph)
- 10SM
04:58
Partly Cloudy
77°F / 25°C 64°F / 18°C 65% 30.01 in
(1016 mb)
ESE 9.2 mph
(ESE 15 kph)
- 10SM
03:58
Mostly Cloudy
81°F / 27°C 63°F / 17°C 54% 30.01 in
(1016 mb)
SE 12.7 mph
(SE 20 kph)
- 10SM
02:58
Partly Cloudy
77°F / 25°C 64°F / 18°C 65% 29.98 in
(1015 mb)
SE 8.1 mph
(SE 13 kph)
- 10SM
01:58
Clear
79°F / 26°C 64°F / 18°C 61% 29.98 in
(1015 mb)
SE 8.1 mph
(SE 13 kph)
- 10SM
00:58
Clear
79°F / 26°C 64°F / 18°C 61% 29.98 in
(1015 mb)
SE 5.8 mph
(SE 9 kph)
- 10SM
Time Weather Temperature Dewpoint Humidity Pressure Winds Precip Visibility


Weather for websites

WeatherForYou.com, LLC is not responsible for any damages or problems caused by this service. Current weather conditions are obtained from the closest station including government and personal stations which may have varying degrees of accuracy. Weather forecasts are derived from the NOAA NDFD. Like all things, this site belongs to Jesus Christ... He just trusts us to maintain it. If you have any questions or comments email webmaster@weatherforyou.com

Copyright © 2015, WeatherForYou.com LLC. All rights reserved.